Weather in Gafurovo

Russia / Republic of Bashkortostan     54°31′27″N   53°41′44″E
В апреле 2022 года жителям России запретили посещать сайт meteo.paraplan.net по решению Генеральной прокуратуры. Аудитория сайта уменьшилась в 10 раз. Владельцы сайта не видят смысла в поддержке погодного сервера в таких условиях. Сайт будет закрыт в октябре.
temp.,
°C
wind,
m/s
gust,
m/s
humid.,
%
clouds,
%
prec.,
mm/h
press.,
hPa
HPBL,
m
4 october, tue
tue423:00+11s515415 0.0 1026489
02:00+10s515405 0.0 1027453
05:00+8sse412425 0.0 1028321
08:00+7sse3124276 0.0 1028279
11:00+13s6112863 0.0 1029548
14:00+15s6924100 0.0 1029916
17:00+14sse5929100 0.0 1029761
20:00+9sse39375 0.0 1030204
5 october, wed
wed523:00+9sse41236100 0.0 1030308
02:00+10sse51430100 0.0 1029494
05:00+9s41230100 0.0 1029405
08:00+9s51230100 0.0 1029425
11:00+10s51229100 0.0 1028535
14:00+10s41033100 0.1 1028553
17:00+12s61228100 0.1 1026639
20:00+11s61329100 0.0 1026570
6 october, thu
thu623:00+8s51262100 0.2 1025549
02:00+7ese3780100 2.1 1023225
05:00+8se41251100 2.1 1020331
08:00+10s41242100 0.0 1018344
11:00+12s61238100 0.0 1017745
14:00+11ssw6105769 0.1 1017765
17:00+12ssw596396 0.2 10161251
20:00+10wsw387098 0.3 1017475
7 october, fri
fri723:00+8wsw257599 0.3 1018221
02:00+5wsw22866 0.0 101815
05:00+4wsw22925 0.0 101818
08:00+3wsw229411 0.0 101822
11:00+7w347355 0.0 1018685
14:00+10w4654100 0.1 10171625
17:00+10wsw576084 0.1 10171105
20:00+9sw51063100 0.1 1017878
8 october, sat
sat823:00+8wsw61276100 0.1 1017781
02:00+9w51187100 0.1 1017566
05:00+9w61381100 0.4 1018739
08:00+9wnw7127689 0.1 10191020
11:00+9w6117269 0.1 1021823
14:00+13wnw710527 0.0 10221461
17:00+13wnw68533 0.0 10231283
20:00+8w36735 0.0 1025112